Weather History for La Junta, CO

Change the Weather History Date:

Tuesday, August 27, 2013

  Actual Average Record
Temperature  
Mean Temperature 84 °F 74 °F  
Max Temperature 99 °F 89 °F 102 °F (1960)
Min Temperature 68 °F 60 °F 50 °F (1992)
Degree Days  
Heating Degree Days 0 0  
Month to date heating degree days 0 0  
Since 1 June heating degree days 11 17  
Since 1 July heating degree days 0 1  
Cooling Degree Days 19 10  
Month to date cooling degree days 365 312  
Year to date cooling degree days 1332 1043  
Since 1 June cooling degree days 1194 970  
Growing Degree Days 33 (Base 50)    
Moisture  
Dew Point 47 °F    
Average Humidity 33    
Maximum Humidity 55    
Minimum Humidity 11    
Precipitation  
Precipitation 0.00 in 0.04 in 0.09 in (1949)
Month to date precipitation 0.45 1.44  
Year to date precipitation 4.01 8.92  
Sea Level Pressure  
Sea Level Pressure 29.84 in    
Wind  
Wind Speed 8 mph (South)    
Max Wind Speed 16 mph    
Max Gust Speed 28 mph    
Visibility 10 miles    
Events      
T = Trace of Precipitation, MM = Missing Value Source: NWS Daily Summary

Daily Weather History Graph

Daily Weather History Graph

Search for Another Location

Airport:

Trip Planner

Search our weather history database for the weather conditions in past years. The results will help you decide how hot, cold, wet, or windy it might be!

Date:

Astronomy

Aug. 27, 2013 Rise Set
Actual Time 6:19 AM MDT 7:30 PM MDT
Civil Twilight 5:52 AM MDT 7:57 PM MDT
Nautical Twilight 5:20 AM MDT 8:30 PM MDT
Astronomical Twilight 4:46 AM MDT 9:03 PM MDT
Moon 11:32 PM MDT (8/27) 1:12 PM MDT (8/27)
Length of Visible Light 14h 05m
Length of Day
13h 10m
Waning Gibbous, 56% of the Moon is Illuminated
Aug 27
Waning Gibbous
Aug 28
Last Quarter
Sep 5
New
Sep 12
First Quarter
Sep 19
Full

Hourly Weather History & Observations

Time (MDT) Temp. Heat Index Dew Point Humidity Pressure Visibility Wind Dir Wind Speed Gust Speed Precip Events Conditions
12:53 AM 80.1 °F - 48.9 °F 34% 29.84 in 10.0 mi South 9.2 mph - N/A   Clear
1:53 AM 79.0 °F - 48.9 °F 35% 29.83 in 10.0 mi South 9.2 mph - N/A   Clear
2:53 AM 78.1 °F - 48.9 °F 36% 29.83 in 10.0 mi South 11.5 mph - N/A   Clear
3:53 AM 75.9 °F - 48.9 °F 38% 29.84 in 10.0 mi SW 11.5 mph - N/A   Clear
4:53 AM 73.0 °F - 48.9 °F 42% 29.85 in 10.0 mi SW 9.2 mph - N/A   Clear
5:53 AM 71.1 °F - 48.9 °F 45% 29.87 in 10.0 mi SSW 4.6 mph - N/A   Clear
6:53 AM 68.0 °F - 51.1 °F 55% 29.89 in 10.0 mi SW 6.9 mph - N/A   Clear
7:53 AM 70.0 °F - 52.0 °F 53% 29.91 in 10.0 mi SW 4.6 mph - N/A   Clear
8:53 AM 72.0 °F - 52.0 °F 49% 29.91 in 10.0 mi SW 5.8 mph - N/A   Clear
9:53 AM 79.0 °F - 53.1 °F 40% 29.91 in 10.0 mi WNW 3.5 mph - N/A   Clear
10:53 AM 84.0 °F 82.5 °F 53.1 °F 34% 29.91 in 10.0 mi Variable 3.5 mph - N/A   Clear
11:53 AM 89.1 °F - 52.0 °F 28% 29.88 in 10.0 mi Variable 3.5 mph - N/A   Clear
12:53 PM 93.9 °F - 48.0 °F 21% 29.85 in 10.0 mi South 6.9 mph - N/A   Clear
1:53 PM 95.0 °F - 45.0 °F 18% 29.83 in 10.0 mi SE 8.1 mph - N/A   Clear
2:53 PM 97.0 °F - 42.1 °F 15% 29.81 in 10.0 mi ESE 6.9 mph 16.1 mph N/A   Clear
3:53 PM 97.0 °F - 39.9 °F 14% 29.79 in 10.0 mi ESE 11.5 mph 16.1 mph N/A   Clear
4:53 PM 98.1 °F - 36.0 °F 11% 29.79 in 10.0 mi NE 6.9 mph - N/A   Clear
5:53 PM 97.0 °F - 37.0 °F 12% 29.78 in 10.0 mi NE 6.9 mph - N/A   Clear
6:53 PM 93.9 °F - 41.0 °F 16% 29.79 in 10.0 mi ENE 9.2 mph - N/A   Clear
7:53 PM 89.1 °F - 45.0 °F 22% 29.80 in 10.0 mi SSE 13.8 mph - N/A   Clear
8:53 PM 84.9 °F - 46.9 °F 27% 29.83 in 10.0 mi SE 11.5 mph - N/A   Clear
9:53 PM 82.9 °F - 46.9 °F 28% 29.83 in 10.0 mi SSE 9.2 mph - N/A   Clear
10:53 PM 81.0 °F - 46.9 °F 30% 29.83 in 10.0 mi SSE 8.1 mph - N/A   Clear
11:53 PM 80.1 °F - 48.0 °F 32% 29.82 in 10.0 mi South 6.9 mph - N/A   Clear